Regional Weather Roundup
Issued by NWS

Home | Current Version | Previous Version | Graphics & Text | Print | Product List | Glossary On
Versions: 1 2 3 4 5 6 7 8 9 10 11 12 13 14 15 16 17 18 19 20 21 22 23 24 25 26 27 28 29 30 31 32 33 34 35 36 37 38 39 40 41 42 43 44 45 46 47 48 49 50
095
ASUS43 KLOT 251708
RWRIL

ILLINOIS REGIONAL WEATHER ROUNDUP
NATIONAL WEATHER SERVICE CHICAGO/ROMEOVILLE IL
1200 PM CDT MON JUL 25 2016

NOTE: "FAIR" INDICATES FEW OR NO CLOUDS BELOW 12,000 FEET WITH NO
SIGNIFICANT WEATHER AND/OR OBSTRUCTIONS TO VISIBILITY.

* THESE STATIONS ARE NOT UNDER NWS QUALITY CONTROL. THEY ALSO MAY NOT
  REPORT WEATHER SUCH AS PRECIPITATION OR FOG.

ILZ001-002-007-009-015-016-024-251800-
NORTHWEST ILLINOIS

CITY           SKY/WX    TMP DP  RH WIND       PRES   REMARKS
MOLINE         MOSUNNY   85  64  49 N10       30.03R HX  86
STERLING*      MOSUNNY   84  69  60 N10       30.03S HX  88
SAVANNA*       SUNNY     83  65  55 N12       30.03S HX  84
$$

ILZ003-004-008-010-011-017-018-251800-
NORTH CENTRAL ILLINOIS

CITY           SKY/WX    TMP DP  RH WIND       PRES   REMARKS
ROCKFORD       MOSUNNY   85  65  51 N12       30.03R HX  86
FREEPORT*      SUNNY     82  64  54 NW10      30.05S HX  83
ROCHELLE*      CLOUDY    82  68  63 N10       30.03S HX  84
DE KALB*       CLOUDY    81  68  63 N9        30.03S HX  84
$$

ILZ005-006-012>014-019>023-251800-
NORTHEAST ILLINOIS

CITY           SKY/WX    TMP DP  RH WIND       PRES   REMARKS
CHICAGO-OHARE  CLOUDY    85  64  49 N6        30.00S HX  86
CHICAGO-MIDWAY PTSUNNY   84  62  47 NW9       30.00S HX  85
AURORA         CLOUDY    82  67  60 N6        30.02R HX  84
LANSING*       CLOUDY    82  61  49 NE6       30.01S HX  82
JOLIET*        CLOUDY    85  67  55 NE6       30.02R HX  87
WAUKEGAN       SUNNY     83  63  50 VRB7      29.99F HX  84
DUPAGE AIRPORT PTSUNNY   83  64  52 N7G16     30.01R HX  84
KANKAKEE*      CLOUDY    82  69  64 CALM      30.03R HX  85
WHEELING       CLOUDY    85  61  44 N10       30.01S HX  85
MORRIS*        MOSUNNY   82  68  61 CALM      30.01R HX  85
ROMEOVILLE*    MOSUNNY   83  62  48 CALM      30.02R HX  84
NORTHERLY ISL    N/A     76  65  68 NE1         N/A
$$

LMZ740>746-251800-
SOUTHERN LAKE MICHIGAN

STATION/POSITION SKY/WX   TEMP    WIND        PRES    VSBY  WAVE
                          AIR SEA DIR/SP/G                  HT/PER
                          (F)     (DEG/KT/KT) (MB)    (MI)  (FT/S)
SOUTHERN BUOY              72 72  330/  8/ 10 1014.9F         2/ 4
WILMETTE HARBOR            73 66  160/  2/  4   N/A           0
HARRISON CRIB              76      10/ 10/ 10   N/A
BURNHAM HARBOR             76     360/  2/  5   N/A
CALUMET HARBOR             78     360/  8/ 13 1015.5R
BURNS HARBOR               74     360/  6/  8 1016.6R
MICHIGAN CITY              76     330/  8/  9   N/A
MICHIGAN CITY 6N           74 73  350/  6/ 10   N/A           2/ 3
ST. JOSEPH                 73 74  330/  6/  8 1015.6F         2/ 4
$$

ILZ025>027-034>036-040-047-049-050-058-095>099-251800-
WEST-CENTRAL ILLINOIS

CITY           SKY/WX    TMP DP  RH WIND       PRES   REMARKS
QUINCY         CLOUDY    81  70  69 CALM      30.06S HX  84
GALESBURG*     MOSUNNY   82  68  62 CALM      30.06R HX  85
MACOMB*        PTSUNNY   80  71  72 NE5       30.08S HX  83
JACKSONVILLE*  CLOUDY    79  73  80 SW7       30.05S HX  82
PITTSFIELD*    CLOUDY    78  75  88 SW5       30.06F HX  81
$$

ILZ028>032-037-038-041>044-048-051>054-059>061-251800-
CENTRAL ILLINOIS

CITY           SKY/WX    TMP DP  RH WIND       PRES   REMARKS
PONTIAC        PTSUNNY   82  72  71 CALM      30.05R HX  87
BLOOMINGTON    CLOUDY    76  73  91 SW7       30.07R
DECATUR        CLOUDY    82  72  71 NW5       30.05S HX  87
PEORIA         CLOUDY    81  73  76 S7        30.05R HX  86
LACON*         CLOUDY    80  68  65 CALM      30.04R HX  83
LINCOLN*       PTSUNNY   83  73  72 W3        30.04S HX  89
SPRINGFIELD    CLOUDY    82  71  69 SW5       30.05S HX  86
TAYLORVILLE    CLOUDY    78  72  81 MISG      30.05F HX  81
$$

ILZ033-039-045-046-055>057-062-063-251800-
EAST-CENTRAL ILLINOIS

CITY           SKY/WX    TMP DP  RH WIND       PRES   REMARKS
CHAMPAIGN      CLOUDY    79  73  82 W7        30.05S HX  82
MATTOON        CLOUDY    82  71  69 NW12      30.04S HX  86
PARIS*         PTSUNNY   80  74  81 CALM      30.06R HX  85
$$

ILZ079-100>102-251800-
SOUTHWEST ILLINOIS

CITY           SKY/WX    TMP DP  RH WIND       PRES   REMARKS
ALTON          RAIN      77  73  88 CALM      30.05R
BELLEVILLE     CLOUDY    78  78  99 NW6       30.03S HX  80
CAHOKIA*       CLOUDY    81  73  76 N3        30.04S HX  86
SPARTA*        PTSUNNY   83  77  82 W5        30.03F HX  92
$$

ILZ064>066-069>071-074>076-080>082-084>086-088>090-092>094-251800-
SOUTH-CENTRAL ILLINOIS

CITY           SKY/WX    TMP DP  RH WIND       PRES   REMARKS
CARBONDALE     CLOUDY    88  76  67 VRB3      30.01F HX  99
CAIRO*         MOSUNNY   87  79  78 SW5       30.01F HX 101
EFFINGHAM*     CLOUDY    86  74  67 CALM      30.05F HX  95
MARION         CLOUDY    88  79  74 SW8       30.02F HX 102
MT. VERNON     PTSUNNY   90  75  62 CALM      30.01S HX 100
CENTRALIA*     CLOUDY    86  78  75 CALM      30.02F HX  98
SALEM*         CLOUDY    87  75  68 CALM      30.03S HX  96
METROPOLIS*    PTSUNNY   87  77  72 SW5       30.02F HX  99
$$

ILZ067-068-072-073-078-083-087-091-251800-
SOUTHEAST ILLINOIS

CITY           SKY/WX    TMP DP  RH WIND       PRES   REMARKS
LAWRENCEVILLE  PTSUNNY   85  73  67 CALM      30.03R HX  91
FLORA*         PTSUNNY   86  74  68 CALM      30.03F HX  94
FAIRFIELD*     MOSUNNY   85  76  75 CALM      30.01F HX  94
HARRISBURG*    HVY RAIN  81  77  89 NW7G18    30.02F HX  88
ROBINSON*      CLOUDY    85  71  61 W3        30.04S HX  90
CARMI*         CLOUDY    87  80  81 CALM      30.01F HX 102
$$

ABBREVIATIONS USED IN REMARKS
   TC - TEMPERATURE IN CELSIUS
  WCI - WIND CHILL INDEX
   HX - HEAT INDEX
  VSB - VISIBILITY
$$





USA.gov is the U.S. government's official web portal to all federal, state and local government web resources and services.